IT9KWW-13 Weather Reports


Display with metric or nautical units.
time (UTC)temp
F
wind
direction
speed
MPH
gust
MPH
rain 1hr
in
rain 24hr
in
rain mn
in
humidity
%
barometer
mb
20260504060208 66 292 0.0 0.0 0.00 0.00 0.00 63 1018.0
20260504050720 54 270 3.0 3.0 0.00 0.00 0.00 79 1016.9
20260504050519 54 270 4.0 5.0 0.00 0.00 0.00 80 1016.9
20260504050307 54 292 4.0 4.0 0.00 0.00 0.00 80 1016.9
20260504045843 54 292 5.0 5.0 0.00 0.00 0.00 79 1016.9
20260504045631 54 315 3.0 4.0 0.00 0.00 0.00 79 1016.9
20260504045431 54 292 5.0 5.0 0.00 0.00 0.00 79 1016.9
20260504045231 54 248 2.0 2.0 0.00 0.00 0.00 79 1016.9
20260504045031 54 292 3.0 3.0 0.00 0.00 0.00 79 1016.9
20260504044819 54 270 2.0 2.0 0.00 0.00 0.00 79 1016.9
20260504044607 54 292 3.0 4.0 0.00 0.00 0.00 79 1016.9
20260504044355 54 292 3.0 3.0 0.00 0.00 0.00 79 1016.9
20260504044143 54 292 3.0 3.0 0.00 0.00 0.00 80 1016.9
20260504043931 54 292 4.0 4.0 0.00 0.00 0.00 80 1016.9
20260504043731 54 292 2.0 2.0 0.00 0.00 0.00 79 1016.9
20260504043519 54 292 2.0 2.0 0.00 0.00 0.00 79 1016.9
20260504043307 54 292 2.0 2.0 0.00 0.00 0.00 79 1016.9
20260504043055 54 292 2.0 2.0 0.00 0.00 0.00 79 1016.9
20260504042843 54 270 5.0 5.0 0.00 0.00 0.00 79 1016.9
20260504042631 54 270 3.0 4.0 0.00 0.00 0.00 79 1016.9
20260504042431 54 270 5.0 5.0 0.00 0.00 0.00 79 1016.9
20260504042219 54 292 5.0 5.0 0.00 0.00 0.00 79 1016.9
20260504042007 54 315 3.0 3.0 0.00 0.00 0.00 80
20260504041807 54 292 3.0 4.0 0.00 0.00 0.00 80
20260504041616 53 270 5.0 5.0 0.00 0.00 0.00 82
20260504041319 54 270 2.0 2.0 0.00 0.00 0.00 82 1015.9
20260504041119 54 292 2.0 2.0 0.00 0.00 0.00 81 1015.9
20260504040907 54 292 2.0 2.0 0.00 0.00 0.00 81 1015.9
20260504040707 54 292 2.0 2.0 0.00 0.00 0.00 81 1015.9
20260504040455 54 292 2.0 2.0 0.00 0.00 0.00 81 1015.9
20260504040243 54 292 2.0 2.0 0.00 0.00 0.00 81 1015.9
20260504040043 54 270 2.0 2.0 0.00 0.00 0.00 82 1015.9
20260504035843 54 270 3.0 3.0 0.00 0.00 0.00 82 1015.9
20260504035631 54 270 3.0 3.0 0.00 0.00 0.00 81 1015.9
20260504035431 54 292 2.0 2.0 0.00 0.00 0.00 81 1015.9
20260504035231 54 292 2.0 2.0 0.00 0.00 0.00 81 1015.9
20260504035019 54 292 2.0 2.0 0.00 0.00 0.00 81 1015.9
20260504034819 54 292 2.0 2.0 0.00 0.00 0.00 81 1016.9
20260504034607 54 292 2.0 2.0 0.00 0.00 0.00 81 1016.9
20260504034355 54 292 2.0 2.0 0.00 0.00 0.00 81 1016.9
20260504034155 54 292 3.0 3.0 0.00 0.00 0.00 81 1016.9
20260504033955 54 292 3.0 3.0 0.00 0.00 0.00 81 1016.9
20260504033743 54 292 3.0 3.0 0.00 0.00 0.00 82 1016.9
20260504033543 54 292 2.0 2.0 0.00 0.00 0.00 82 1016.9
20260504033343 54 270 2.0 2.0 0.00 0.00 0.00 82 1016.9
20260504033131 54 292 3.0 3.0 0.00 0.00 0.00 82 1016.9
20260504032931 54 270 5.0 5.0 0.00 0.00 0.00 82 1016.9
20260504032731 54 292 3.0 3.0 0.00 0.00 0.00 82 1016.9
20260504032519 54 292 2.0 2.0 0.00 0.00 0.00 82 1016.9
20260504032319 54 292 3.0 4.0 0.00 0.00 0.00 82 1016.9
20260504032119 54 292 3.0 4.0 0.00 0.00 0.00 82 1016.9
20260504031907 54 270 3.0 3.0 0.00 0.00 0.00 81 1016.9
20260504031707 54 292 2.0 2.0 0.00 0.00 0.00 81 1016.9
20260504031507 54 292 2.0 2.0 0.00 0.00 0.00 81 1016.9
20260504031255 54 292 3.0 3.0 0.00 0.00 0.00 82 1016.9
20260504031055 54 292 4.0 4.0 0.00 0.00 0.00 82 1016.9
20260504030855 54 270 3.0 3.0 0.00 0.00 0.00 81 1016.9
20260504030643 54 270 3.0 3.0 0.00 0.00 0.00 81 1016.9
20260504030443 54 292 3.0 4.0 0.00 0.00 0.00 81 1016.9
20260504030019 54 292 4.0 5.0 0.00 0.00 0.00 81 1016.9
20260504025819 54 270 3.0 3.0 0.00 0.00 0.00 81 1016.9
20260504025619 54 292 3.0 3.0 0.00 0.00 0.00 81 1016.9
20260504025407 54 292 4.0 5.0 0.00 0.00 0.00 80 1016.9
20260504025207 54 270 4.0 5.0 0.00 0.00 0.00 80 1016.9
20260504025007 54 315 4.0 4.0 0.00 0.00 0.00 81 1016.9
20260504024755 54 292 2.0 2.0 0.00 0.00 0.00 81 1016.9
20260504024555 54 248 6.0 6.0 0.00 0.00 0.00 81 1016.9
20260504024355 54 292 2.0 2.0 0.00 0.00 0.00 81 1016.9
20260504024143 54 292 2.0 2.0 0.00 0.00 0.00 81 1016.9
20260504023943 54 315 5.0 5.0 0.00 0.00 0.00 81 1016.9
20260504023743 54 292 5.0 5.0 0.00 0.00 0.00 82 1016.9
20260504023542 54 292 5.0 5.0 0.00 0.00 0.00 82 1016.9
20260504023331 54 292 4.0 5.0 0.00 0.00 0.00 83 1016.9
20260504023131 54 292 3.0 3.0 0.00 0.00 0.00 83 1016.9
20260504022919 53 292 2.0 2.0 0.00 0.00 0.00 83 1016.9
20260504022719 53 292 4.0 5.0 0.00 0.00 0.00 83 1016.9
20260504022519 53 292 2.0 2.0 0.00 0.00 0.00 83 1016.9
20260504022307 53 315 3.0 3.0 0.00 0.00 0.00 83 1016.9
20260504022107 53 292 2.0 2.0 0.00 0.00 0.00 83 1016.9
20260504021907 53 315 2.0 2.0 0.00 0.00 0.00 83 1016.9
20260504021655 53 292 3.0 3.0 0.00 0.00 0.00 83 1016.9
20260504021455 54 292 3.0 3.0 0.00 0.00 0.00 83 1016.9
20260504021255 54 292 2.0 2.0 0.00 0.00 0.00 82 1016.9
20260504021043 54 292 4.0 5.0 0.00 0.00 0.00 82 1016.9
20260504020843 54 292 5.0 5.0 0.00 0.00 0.00 82 1016.9
20260504020643 54 292 4.0 5.0 0.00 0.00 0.00 82 1016.9
20260504020431 54 338 4.0 4.0 0.00 0.00 0.00 82 1016.9
20260504020230 54 292 5.0 5.0 0.00 0.00 0.00 82 1016.9
20260504020031 54 292 5.0 5.0 0.00 0.00 0.00 82 1016.9
20260504015819 54 292 4.0 5.0 0.00 0.00 0.00 82 1016.9
20260504015619 54 248 5.0 5.0 0.00 0.00 0.00 82 1016.9
20260504015419 54 292 2.0 2.0 0.00 0.00 0.00 82 1016.9
20260504015207 54 292 3.0 4.0 0.00 0.00 0.00 82 1016.9
20260504015007 53 292 5.0 5.0 0.00 0.00 0.00 82 1016.9
20260504014807 53 270 5.0 5.0 0.00 0.00 0.00 82 1016.9
20260504014555 53 292 4.0 4.0 0.00 0.00 0.00 82 1016.9
20260504014355 53 292 4.0 5.0 0.00 0.00 0.00 82 1016.9
20260504014154 53 292 5.0 5.0 0.00 0.00 0.00 82 1016.9
20260504013943 53 292 6.0 6.0 0.00 0.00 0.00 83 1016.9
20260504013743 53 270 5.0 5.0 0.00 0.00 0.00 84 1016.9
20260504013543 53 270 5.0 5.0 0.00 0.00 0.00 84 1016.9
20260504013331 53 292 2.0 2.0 0.00 0.00 0.00 84 1016.9
20260504013131 53 292 2.0 2.0 0.00 0.00 0.00 84 1016.9
20260504012931 53 292 3.0 3.0 0.00 0.00 0.00 84 1016.9
20260504012719 53 315 3.0 3.0 0.00 0.00 0.00 84 1016.9
20260504012518 53 292 4.0 4.0 0.00 0.00 0.00 84 1016.9
20260504012319 53 292 4.0 4.0 0.00 0.00 0.00 84 1016.9
20260504012107 53 292 4.0 4.0 0.00 0.00 0.00 84 1016.9
20260504011907 53 270 2.0 2.0 0.00 0.00 0.00 83 1016.9
20260504011707 53 292 3.0 3.0 0.00 0.00 0.00 83 1016.9
20260504011455 53 292 2.0 2.0 0.00 0.00 0.00 83 1016.9
20260504011255 53 292 4.0 5.0 0.00 0.00 0.00 83 1016.9
20260504011054 53 292 3.0 3.0 0.00 0.00 0.00 83 1016.9
20260504010843 54 292 5.0 5.0 0.00 0.00 0.00 83 1016.9
20260504010643 54 292 3.0 3.0 0.00 0.00 0.00 83 1016.9
20260504010442 54 292 3.0 4.0 0.00 0.00 0.00 82 1016.9
20260504010231 54 315 2.0 2.0 0.00 0.00 0.00 82 1016.9
20260504010031 54 315 2.0 2.0 0.00 0.00 0.00 82 1016.9
20260504005831 54 248 2.0 2.0 0.00 0.00 0.00 81 1016.9
20260504005619 54 315 5.0 5.0 0.00 0.00 0.00 82 1016.9
20260504005418 54 315 6.0 6.0 0.00 0.00 0.00 82 1016.9
20260504005218 54 315 3.0 3.0 0.00 0.00 0.00 82 1016.9
20260504005007 54 292 4.0 4.0 0.00 0.00 0.00 82 1016.9
20260504004806 54 270 3.0 3.0 0.00 0.00 0.00 82 1016.9
20260504004607 54 292 5.0 5.0 0.00 0.00 0.00 82 1016.9
20260504004355 54 248 5.0 6.0 0.00 0.00 0.00 82 1016.9
20260504004154 54 270 3.0 3.0 0.00 0.00 0.00 82 1016.9
20260504003955 54 270 3.0 3.0 0.00 0.00 0.00 82 1016.9
20260504003743 54 270 4.0 4.0 0.00 0.00 0.00 82 1016.9
20260504003543 54 292 3.0 3.0 0.00 0.00 0.00 82 1016.9
20260504003342 54 315 4.0 5.0 0.00 0.00 0.00 82 1016.9
20260504003131 54 292 2.0 2.0 0.00 0.00 0.00 82 1016.9
20260504002931 54 315 2.0 2.0 0.00 0.00 0.00 82 1016.9
20260504002730 54 315 2.0 2.0 0.00 0.00 0.00 82 1016.9
20260504002519 54 315 3.0 3.0 0.00 0.00 0.00 81 1016.9
20260504002319 54 315 2.0 2.0 0.00 0.00 0.00 81 1016.9
20260504002119 54 270 4.0 5.0 0.00 0.00 0.00 81 1016.9
20260504001907 54 270 4.0 4.0 0.00 0.00 0.00 81 1016.9
20260504001706 54 270 2.0 2.0 0.00 0.00 0.00 80 1016.9
20260504001506 54 270 4.0 5.0 0.00 0.00 0.00 81 1016.9
20260504001255 54 292 3.0 3.0 0.00 0.00 0.00 81 1016.9
20260504001054 54 292 5.0 5.0 0.00 0.00 0.00 81 1016.9
20260504000855 54 270 5.0 5.0 0.00 0.00 0.00 82 1016.9
20260504000643 54 292 3.0 3.0 0.00 0.00 0.00 82 1016.9
20260504000442 54 270 6.0 6.0 0.00 0.00 0.00 82 1016.9
20260504000242 54 270 5.0 5.0 0.00 0.00 0.00 82 1016.9
20260504000031 54 270 5.0 5.0 0.00 0.00 0.00 82 1016.9
20260503235830 54 270 5.0 5.0 0.00 0.00 0.00 82 1016.9
20260503235630 54 270 3.0 4.0 0.00 0.00 0.00 82 1016.9
20260503235419 54 292 3.0 3.0 0.00 0.00 0.00 82 1016.9
20260503235219 54 292 4.0 5.0 0.00 0.00 0.00 82 1016.9
20260503235018 54 292 2.0 2.0 0.00 0.00 0.00 82 1016.9
20260503234807 55 292 2.0 2.0 0.00 0.00 0.00 81 1016.9
20260503234606 55 292 5.0 5.0 0.00 0.00 0.00 81 1016.9
20260503234406 55 292 3.0 3.0 0.00 0.00 0.00 81 1016.9
20260503234155 55 270 5.0 6.0 0.00 0.00 0.00 81 1016.9
20260503233954 55 292 5.0 5.0 0.00 0.00 0.00 81 1016.9
20260503233754 55 270 5.0 5.0 0.00 0.00 0.00 81 1016.9
20260503233543 55 292 3.0 3.0 0.00 0.00 0.00 81 1016.9
20260503233342 55 292 3.0 3.0 0.00 0.00 0.00 81 1016.9
20260503233142 55 292 3.0 3.0 0.00 0.00 0.00 81 1016.9
20260503232942 55 292 3.0 4.0 0.00 0.00 0.00 80 1016.9
20260503232530 55 292 3.0 3.0 0.00 0.00 0.00 80 1016.9
20260503232319 55 292 3.0 3.0 0.00 0.00 0.00 80 1016.9
20260503232118 55 292 3.0 3.0 0.00 0.00 0.00 80 1016.9
20260503231918 55 315 4.0 5.0 0.00 0.00 0.00 80 1016.9
20260503231707 55 292 2.0 2.0 0.00 0.00 0.00 80 1016.9
20260503231506 55 315 3.0 3.0 0.00 0.00 0.00 80 1016.9
20260503231306 55 292 3.0 3.0 0.00 0.00 0.00 81 1016.9
20260503231055 55 248 4.0 4.0 0.00 0.00 0.00 81 1016.9
20260503230854 55 292 2.0 2.0 0.00 0.00 0.00 81 1016.9
20260503230654 55 292 3.0 4.0 0.00 0.00 0.00 81 1016.9
20260503230443 55 292 5.0 5.0 0.00 0.00 0.00 81 1016.9
20260503230242 55 292 4.0 5.0 0.00 0.00 0.00 80 1018.0
20260503230042 55 292 5.0 5.0 0.00 0.00 0.00 80 1018.0
20260503225831 56 338 5.0 5.0 0.00 0.00 0.00 80 1018.0
20260503225630 56 315 5.0 5.0 0.00 0.00 0.00 79 1018.0
20260503225430 56 315 6.0 6.0 0.00 0.00 0.00 78 1018.0
20260503225219 56 315 4.0 4.0 0.00 0.00 0.00 78 1018.0
20260503225018 56 315 2.0 2.0 0.00 0.00 0.00 79 1018.0
20260503224818 56 292 3.0 3.0 0.00 0.00 0.00 79 1018.0
20260503224607 56 270 5.0 5.0 0.00 0.00 0.00 80 1018.0
20260503224406 56 270 5.0 6.0 0.00 0.00 0.00 79 1018.0
20260503224206 56 270 6.0 6.0 0.00 0.00 0.00 79 1018.0
20260503223955 57 248 6.0 6.0 0.00 0.00 0.00 78 1018.0
20260503223754 57 270 4.0 4.0 0.00 0.00 0.00 77 1018.0
20260503223554 57 270 4.0 5.0 0.00 0.00 0.00 76 1018.0
20260503223343 57 292 5.0 5.0 0.00 0.00 0.00 75 1018.0
20260503223142 56 292 6.0 6.0 0.00 0.00 0.00 76 1018.0
20260503222942 56 292 4.0 4.0 0.00 0.00 0.00 77 1018.0
20260503222733 56 292 5.0 5.0 0.00 0.00 0.00 77 1018.0
20260503222530 56 270 5.0 5.0 0.00 0.00 0.00 78 1018.0
20260503222330 56 270 5.0 5.0 0.00 0.00 0.00 78 1018.0
20260503222119 57 270 5.0 5.0 0.00 0.00 0.00 78 1018.0
20260503221918 57 248 5.0 5.0 0.00 0.00 0.00 78 1016.9
20260503221718 57 270 5.0 5.0 0.00 0.00 0.00 77 1016.9
20260503221507 57 270 6.0 6.0 0.00 0.00 0.00 77 1016.9
20260503221306 57 248 5.0 5.0 0.00 0.00 0.00 76 1016.9
20260503221106 57 270 3.0 3.0 0.00 0.00 0.00 76 1016.9
20260503220855 57 292 4.0 4.0 0.00 0.00 0.00 76 1016.9
20260503220654 57 292 5.0 5.0 0.00 0.00 0.00 76 1016.9
20260503220454 56 270 4.0 5.0 0.00 0.00 0.00 76 1016.9
20260503220243 56 292 2.0 2.0 0.00 0.00 0.00 77 1016.9
20260503220042 56 270 3.0 3.0 0.00 0.00 0.00 77 1016.9
20260503215842 56 270 3.0 3.0 0.00 0.00 0.00 77 1016.9
20260503215631 56 292 3.0 3.0 0.00 0.00 0.00 78 1016.9
20260503215430 57 270 3.0 3.0 0.00 0.00 0.00 78 1016.9
20260503215230 57 270 5.0 5.0 0.00 0.00 0.00 78 1016.9
20260503215019 57 270 3.0 4.0 0.00 0.00 0.00 78 1016.9
20260503214818 57 270 4.0 4.0 0.00 0.00 0.00 77 1016.9
20260503214618 57 270 2.0 2.0 0.00 0.00 0.00 77 1016.9
20260503214407 57 270 4.0 4.0 0.00 0.00 0.00 76 1016.9
20260503214206 57 292 4.0 5.0 0.00 0.00 0.00 76 1016.9
20260503214006 57 292 4.0 5.0 0.00 0.00 0.00 76 1016.9
20260503213755 57 292 2.0 2.0 0.00 0.00 0.00 75 1016.9
20260503213554 57 270 4.0 4.0 0.00 0.00 0.00 75 1016.9
20260503213354 57 270 5.0 5.0 0.00 0.00 0.00 75 1016.9
20260503213143 57 270 5.0 5.0 0.00 0.00 0.00 76 1016.9
20260503212942 57 270 5.0 5.0 0.00 0.00 0.00 76 1016.9
20260503212742 57 270 4.0 5.0 0.00 0.00 0.00 76 1016.9
20260503212531 57 270 5.0 5.0 0.00 0.00 0.00 75 1016.9
20260503212330 57 270 5.0 5.0 0.00 0.00 0.00 75 1016.9
20260503212130 58 270 2.0 2.0 0.00 0.00 0.00 74 1016.9
20260503211919 58 270 5.0 5.0 0.00 0.00 0.00 74 1016.9
20260503211718 58 270 4.0 5.0 0.00 0.00 0.00 73 1016.9
20260503211518 58 292 3.0 3.0 0.00 0.00 0.00 73 1016.9
20260503211307 58 292 4.0 4.0 0.00 0.00 0.00 73 1016.9
20260503211106 58 292 2.0 2.0 0.00 0.00 0.00 73 1016.9
20260503210906 58 270 3.0 3.0 0.00 0.00 0.00 73 1016.9
20260503210655 58 270 6.0 6.0 0.00 0.00 0.00 72 1016.9
20260503210454 58 292 6.0 6.0 0.00 0.00 0.00 72 1016.9
20260503210254 58 292 3.0 3.0 0.00 0.00 0.00 72 1016.9
20260503210043 58 248 5.0 5.0 0.00 0.00 0.00 71 1016.9
20260503205842 58 270 5.0 5.0 0.00 0.00 0.00 71 1016.9
20260503205642 58 292 4.0 5.0 0.00 0.00 0.00 71 1016.9
20260503205431 58 270 5.0 5.0 0.00 0.00 0.00 71 1016.9
20260503205230 58 292 4.0 4.0 0.00 0.00 0.00 71 1016.9
20260503205030 58 292 4.0 4.0 0.00 0.00 0.00 71 1016.9
20260503204819 58 292 3.0 3.0 0.00 0.00 0.00 71 1016.9
20260503204618 58 292 3.0 3.0 0.00 0.00 0.00 71 1016.9
20260503204418 58 292 2.0 2.0 0.00 0.00 0.00 71 1016.9
20260503204207 58 292 2.0 2.0 0.00 0.00 0.00 71 1016.9
20260503204006 59 292 4.0 4.0 0.00 0.00 0.00 71 1016.9
20260503203806 59 292 3.0 4.0 0.00 0.00 0.00 71 1016.9
20260503203555 59 292 4.0 5.0 0.00 0.00 0.00 71 1016.9
20260503203354 59 292 3.0 3.0 0.00 0.00 0.00 70 1016.9
20260503203154 59 292 3.0 3.0 0.00 0.00 0.00 70 1016.9
20260503202943 59 315 5.0 5.0 0.00 0.00 0.00 69 1016.9
20260503202742 59 315 7.0 7.0 0.00 0.00 0.00 68 1016.9
20260503202542 58 315 6.0 6.0 0.00 0.00 0.00 68 1016.9
20260503202331 58 315 5.0 5.0 0.00 0.00 0.00 69 1016.9
20260503202130 58 315 4.0 4.0 0.00 0.00 0.00 70 1016.9
20260503201930 58 338 5.0 5.0 0.00 0.00 0.00 71 1016.9
20260503201720 58 315 2.0 2.0 0.00 0.00 0.00 72 1016.9
20260503201518 58 292 2.0 2.0 0.00 0.00 0.00 72 1016.9
20260503201319 58 315 3.0 3.0 0.00 0.00 0.00 72 1016.9
20260503201107 58 292 3.0 4.0 0.00 0.00 0.00 72 1016.9
20260503200906 58 292 3.0 3.0 0.00 0.00 0.00 72 1016.9
20260503200706 58 292 4.0 4.0 0.00 0.00 0.00 72 1016.9
20260503200455 58 292 3.0 3.0 0.00 0.00 0.00 73 1016.9
20260503200254 58 270 3.0 3.0 0.00 0.00 0.00 73 1016.9
20260503200054 59 292 3.0 3.0 0.00 0.00 0.00 72 1016.9
20260503195843 59 292 3.0 3.0 0.00 0.00 0.00 72 1016.9
20260503195642 59 270 2.0 2.0 0.00 0.00 0.00 72 1016.9
20260503195442 59 270 2.0 2.0 0.00 0.00 0.00 72 1016.9
20260503195231 59 270 3.0 3.0 0.00 0.00 0.00 72 1016.9
20260503195030 59 270 2.0 2.0 0.00 0.00 0.00 71 1016.9
20260503194830 59 270 2.0 2.0 0.00 0.00 0.00 71 1016.9
20260503194619 60 270 3.0 3.0 0.00 0.00 0.00 71 1016.9
20260503194418 60 270 4.0 5.0 0.00 0.00 0.00 71 1016.9
20260503194218 60 270 2.0 2.0 0.00 0.00 0.00 71 1016.9
20260503194007 60 270 3.0 3.0 0.00 0.00 0.00 70 1016.9
20260503193806 60 270 5.0 5.0 0.00 0.00 0.00 69 1016.9
20260503193606 60 292 4.0 5.0 0.00 0.00 0.00 69 1016.9
20260503193355 61 270 2.0 2.0 0.00 0.00 0.00 68 1016.9
20260503193154 61 315 2.0 2.0 0.00 0.00 0.00 68 1016.9
20260503192954 61 292 2.0 2.0 0.00 0.00 0.00 68 1016.9
20260503192744 61 315 2.0 2.0 0.00 0.00 0.00 68 1016.9
20260503192542 61 338 4.0 4.0 0.00 0.00 0.00 67 1016.9
20260503192342 61 315 2.0 2.0 0.00 0.00 0.00 67 1016.9
20260503192131 61 315 3.0 3.0 0.00 0.00 0.00 67 1016.9
20260503191930 62 292 3.0 3.0 0.00 0.00 0.00 67 1016.9
20260503191730 62 292 2.0 2.0 0.00 0.00 0.00 66 1016.9
20260503191522 62 270 2.0 2.0 0.00 0.00 0.00 66 1016.9
20260503191318 62 270 2.0 2.0 0.00 0.00 0.00 65 1016.9
20260503191118 62 292 3.0 3.0 0.00 0.00 0.00 64 1016.9
20260503190917 62 270 2.0 2.0 0.00 0.00 0.00 65 1016.9
20260503190706 62 292 3.0 3.0 0.00 0.00 0.00 65 1016.9
20260503190506 62 292 3.0 3.0 0.00 0.00 0.00 65 1016.9
20260503190255 63 292 2.0 2.0 0.00 0.00 0.00 65 1016.9
20260503190054 63 292 2.0 2.0 0.00 0.00 0.00 64 1015.9
20260503185854 63 292 2.0 2.0 0.00 0.00 0.00 63 1015.9
20260503185643 63 292 2.0 2.0 0.00 0.00 0.00 62 1015.9
20260503185442 63 292 2.0 2.0 0.00 0.00 0.00 62 1015.9
20260503185242 63 292 2.0 2.0 0.00 0.00 0.00 61 1015.9
20260503185031 63 292 2.0 2.0 0.00 0.00 0.00 61 1015.9
20260503184830 62 292 1.0 1.0 0.00 0.00 0.00 61 1015.9
20260503184630 62 292 3.0 3.0 0.00 0.00 0.00 61 1015.9
20260503184419 62 292 3.0 3.0 0.00 0.00 0.00 62 1015.9
20260503184218 62 248 5.0 5.0 0.00 0.00 0.00 65 1015.9
20260503184018 62 270 2.0 2.0 0.00 0.00 0.00 67 1015.9
20260503183807 62 248 4.0 5.0 0.00 0.00 0.00 68 1015.9
20260503183606 62 248 5.0 5.0 0.00 0.00 0.00 70 1015.9
20260503183406 62 248 5.0 5.0 0.00 0.00 0.00 70 1015.9
20260503183155 62 248 5.0 5.0 0.00 0.00 0.00 69 1015.9
20260503182954 62 270 5.0 5.0 0.00 0.00 0.00 69 1015.9
20260503182754 63 270 5.0 5.0 0.00 0.00 0.00 70 1015.9
20260503182543 63 292 4.0 4.0 0.00 0.00 0.00 71 1015.9
20260503182342 63 292 4.0 4.0 0.00 0.00 0.00 70 1015.9
20260503182142 63 292 3.0 3.0 0.00 0.00 0.00 70 1015.9
20260503181931 63 338 1.0 1.0 0.00 0.00 0.00 70 1015.9
20260503181730 63 315 2.0 2.0 0.00 0.00 0.00 70 1015.9
20260503181530 63 315 2.0 2.0 0.00 0.00 0.00 69 1015.9
20260503181319 63 45 0.0 0.0 0.00 0.00 0.00 68 1015.9
20260503181118 63 45 1.0 1.0 0.00 0.00 0.00 67 1015.9
20260503180918 63 45 0.0 0.0 0.00 0.00 0.00 67 1015.9
20260503180707 64 22 2.0 2.0 0.00 0.00 0.00 67 1015.9
20260503180506 64 45 0.0 0.0 0.00 0.00 0.00 66 1015.9
20260503180306 64 45 2.0 2.0 0.00 0.00 0.00 66 1015.9
20260503180055 64 45 5.0 5.0 0.00 0.00 0.00 66 1015.9
20260503175854 64 68 2.0 2.0 0.00 0.00 0.00 67 1015.9
20260503175654 64 45 4.0 5.0 0.00 0.00 0.00 69 1015.9
20260503175443 64 45 1.0 1.0 0.00 0.00 0.00 70 1015.9
20260503175242 64 22 2.0 2.0 0.00 0.00 0.00 71 1015.9
20260503175042 64 22 2.0 2.0 0.00 0.00 0.00 72 1015.9
20260503174831 65 338 2.0 2.0 0.00 0.00 0.00 72 1015.9
20260503174630 65 0 2.0 2.0 0.00 0.00 0.00 72 1014.9
20260503174430 65 338 0.0 0.0 0.00 0.00 0.00 72 1014.9
20260503174219 65 338 4.0 4.0 0.00 0.00 0.00 71 1014.9
20260503174018 65 22 2.0 2.0 0.00 0.00 0.00 72 1014.9
20260503173818 65 338 3.0 3.0 0.00 0.00 0.00 72 1014.9
20260503173607 66 22 6.0 6.0 0.00 0.00 0.00 72 1014.9
20260503173406 66 22 4.0 5.0 0.00 0.00 0.00 72 1014.9
20260503173206 66 22 6.0 6.0 0.00 0.00 0.00 72 1014.9
20260503172955 66 22 5.0 5.0 0.00 0.00 0.00 72 1014.9
20260503172754 66 22 6.0 6.0 0.00 0.00 0.00 72 1014.9
20260503172554 67 45 6.0 6.0 0.00 0.00 0.00 72 1014.9
20260503172343 67 68 8.0 9.0 0.00 0.00 0.00 73 1014.9
20260503172142 67 22 6.0 6.0 0.00 0.00 0.00 72 1014.9
20260503171942 67 22 6.0 7.0 0.00 0.00 0.00 72 1014.9
20260503171731 67 22 3.0 4.0 0.00 0.00 0.00 71 1014.9
20260503171530 68 68 4.0 4.0 0.00 0.00 0.00 70 1014.9
20260503171330 68 22 5.0 5.0 0.00 0.00 0.00 70 1014.9
20260503171119 68 68 5.0 5.0 0.00 0.00 0.00 69 1014.9
20260503170918 69 22 6.0 6.0 0.00 0.00 0.00 69 1014.9
20260503170718 69 45 5.0 5.0 0.00 0.00 0.00 68 1014.9
20260503170507 69 22 5.0 6.0 0.00 0.00 0.00 67 1014.9
20260503170306 70 45 3.0 3.0 0.00 0.00 0.00 66 1014.9
20260503170106 70 22 6.0 6.0 0.00 0.00 0.00 65 1014.9
20260503160142 72 68 5.0 5.0 0.00 0.00 0.00 47 1014.9
20260503150855 71 135 3.0 4.0 0.00 0.00 0.00 46 1014.9
20260503150654 71 68 6.0 6.0 0.00 0.00 0.00 45 1014.9
20260503150454 71 135 4.0 4.0 0.00 0.00 0.00 45 1014.9
20260503150255 71 112 6.0 6.0 0.00 0.00 0.00 45 1014.9
20260503140233 72 90 6.0 6.0 0.00 0.00 0.00 45 1015.9
20260503131230 72 135 8.0 9.0 0.00 0.00 0.00 42 1015.9
20260503131030 72 158 8.0 9.0 0.00 0.00 0.00 43 1015.9
20260503130819 72 158 7.0 8.0 0.00 0.00 0.00 42 1015.9
20260503130618 72 158 6.0 6.0 0.00 0.00 0.00 44 1015.9
20260503130418 72 135 7.0 8.0 0.00 0.00 0.00 43 1015.9
20260503130219 72 135 13.0 15.0 0.00 0.00 0.00 44 1015.9
20260503120219 72 135 9.0 12.0 0.00 0.00 0.00 42 1016.9
20260503110818 72 135 7.0 7.0 0.00 0.00 0.00 38 1016.9
20260503110618 72 112 11.0 13.0 0.00 0.00 0.00 40 1016.9
20260503110418 72 90 8.0 9.0 0.00 0.00 0.00 40 1016.9
20260503110219 71 112 9.0 12.0 0.00 0.00 0.00 41 1016.9
20260503100219 71 135 5.0 5.0 0.00 0.00 0.00 42 1018.0
20260503090454 72 68 5.0 5.0 0.00 0.00 0.00 35 1018.0
20260503090254 72 270 4.0 5.0 0.00 0.00 0.00 35 1018.0
20260503081554 71 292 2.0 2.0 0.00 0.00 0.00 33 1018.0
20260503081342 71 338 3.0 3.0 0.00 0.00 0.00 33 1018.0
20260503081130 71 338 2.0 2.0 0.00 0.00 0.00 35 1018.0
20260503080918 71 248 2.0 2.0 0.00 0.00 0.00 37 1018.0
20260503080706 71 248 5.0 5.0 0.00 0.00 0.00 36 1018.0
20260503080506 71 180 2.0 2.0 0.00 0.00 0.00 37 1018.0
20260503080254 71 248 3.0 3.0 0.00 0.00 0.00 34 1018.0
20260503072918 68 315 5.0 5.0 0.00 0.00 0.00 36 1018.0
20260503072718 68 292 3.0 3.0 0.00 0.00 0.00 35 1018.0
20260503072506 68 292 5.0 5.0 0.00 0.00 0.00 35 1018.0
20260503072306 68 270 7.0 8.0 0.00 0.00 0.00 36 1018.0
20260503072054 68 292 5.0 5.0 0.00 0.00 0.00 38 1018.0
20260503071854 68 338 4.0 4.0 0.00 0.00 0.00 40 1018.0
20260503071654 68 338 5.0 5.0 0.00 0.00 0.00 40 1018.0
20260503071454 68 338 3.0 3.0 0.00 0.00 0.00 41 1018.0
20260503071243 67 270 5.0 5.0 0.00 0.00 0.00 40 1018.0
20260503071042 67 0 4.0 5.0 0.00 0.00 0.00 41 1018.0
20260503070842 67 292 5.0 5.0 0.00 0.00 0.00 41 1018.0
20260503070631 67 202 3.0 3.0 0.00 0.00 0.00 41 1018.0
20260503070430 67 292 6.0 6.0 0.00 0.00 0.00 44 1018.0
20260503070230 67 292 2.0 2.0 0.00 0.00 0.00 43 1018.0